Zurück zum Katalog

CZ-6A DEB

AktivSSO
NORAD 54881·DEBRIS·🇨🇳 China

Gestartet Nov 11, 2022 von Taiyuan Satellite Launch Center

Loading…

Nächste Überflüge (nächste 24 Stunden)

TLE

AktuellSource: Space-Track

Epoche: Sep 14, 2026, 20:18 UTC

1 54881U 22151PS  26257.84641725  .00006482  00000-0  10295-2 0  9995
2 54881  98.4005 291.7353 0086875 328.8044  30.8021 14.69951461202023

Verfolge CZ-6A DEB in Echtzeit mit AllMySat

Download on the App Store